Visibility
15.0 15.0 15.0 15.0 15.0 15.0 15.0 15.0 15.0 15.0 15.0 15.0 15.0 15.0 15.0 15.0 15.0 15.0 15.0 15.0 15.0 15.0 15.0 15.0 15.0 15.0 15.0 15.0 15.0 15.0 15.0 10.8 0.1 1.0 1.7 5.3 15.0 14.8 15.0 15.0 15.0 15.0 15.0 15.0
15.0 15.0 15.0 15.0 15.0 15.0 15.0 15.0 15.0 15.0 15.0 15.0 15.0 15.0 15.0 15.0 15.0 15.0 15.0 15.0 15.0 15.0 15.0 15.0 15.0 15.0 15.0 15.0 15.0 15.0 15.0 15.0 15.0 15.0 15.0 15.0 15.0 15.0 15.0 15.0 15.0 15.0 15.0 15.0
15.0 15.0 15.0 15.0 15.0 15.0 15.0 15.0 15.0 15.0 15.0 15.0 15.0 15.0 15.0 15.0 15.0 15.0 15.0 15.0 15.0 15.0 15.0 15.0 15.0 15.0 15.0 15.0 15.0 15.0 15.0 12.3 15.0 15.0 15.0 15.0 15.0 15.0 15.0 15.0 15.0 15.0 15.0 15.0
15.0 15.0 5.6 14.9 15.0 15.0 15.0 15.0 15.0 15.0 15.0 15.0 15.0 15.0 15.0 15.0 15.0 15.0 15.0 15.0 15.0 15.0 15.0 15.0 15.0 15.0 15.0 15.0 15.0 15.0 15.0 15.0 15.0 15.0 15.0 8.2 15.0 15.0 15.0 15.0 15.0 15.0 15.0 15.0
15.0 15.0 15.0 15.0 15.0 15.0 15.0 15.0 15.0 15.0 15.0 15.0 15.0 15.0 15.0 15.0 15.0 15.0 15.0 15.0 15.0 15.0 15.0 15.0 15.0 15.0 15.0 15.0 15.0 15.0 15.0 15.0 15.0 15.0 15.0 15.0 15.0 15.0 15.0 15.0 15.0 15.0 15.0 15.0
0.7 15.0 15.0 15.0 15.0 15.0 15.0 15.0 15.0 15.0 15.0 15.0 15.0 15.0 15.0 15.0 15.0 15.0 15.0 15.0 15.0 15.0 15.0 15.0 13.8 13.9 15.0 15.0 15.0 15.0 15.0 15.0 15.0 15.0 15.0 15.0 15.0 15.0 15.0 15.0 15.0 15.0 15.0 15.0
0.2 0.0 13.0 15.0 15.0 15.0 15.0 15.0 15.0 15.0 15.0 15.0 15.0 15.0 15.0 15.0 15.0 15.0 15.0 15.0 15.0 15.0 15.0 15.0 15.0 15.0 15.0 15.0 15.0 15.0 15.0 15.0 15.0 15.0 15.0 15.0 15.0 15.0 15.0 15.0 15.0 15.0 15.0 15.0
9.3 0.0 8.5 15.0 15.0 15.0 15.0 15.0 15.0 15.0 15.0 15.0 15.0 15.0 15.0 15.0 15.0 15.0 15.0 15.0 15.0 15.0 15.0 15.0 15.0 15.0 15.0 15.0 15.0 15.0 15.0 15.0 15.0 15.0 15.0 15.0 15.0 15.0 15.0 15.0 15.0 15.0 15.0 15.0
14.3 14.6 14.5 15.0 14.9 15.0 15.0 15.0 15.0 15.0 15.0 15.0 15.0 15.0 15.0 15.0 15.0 15.0 15.0 15.0 15.0 15.0 15.0 15.0 15.0 15.0 15.0 15.0 15.0 15.0 15.0 15.0 15.0 15.0 15.0 15.0 15.0 15.0 15.0 15.0 15.0 15.0 15.0 15.0
15.0 15.0 15.0 14.7 15.0 15.0 15.0 15.0 15.0 15.0 15.0 15.0 15.0 14.8 15.0 15.0 15.0 15.0 15.0 15.0 15.0 15.0 15.0 15.0 15.0 15.0 15.0 15.0 15.0 15.0 15.0 15.0 15.0 15.0 15.0 15.0 15.0 15.0 15.0 15.0 15.0 15.0 15.0 15.0
15.0 15.0 15.0 15.0 15.0 15.0 15.0 15.0 15.0 15.0 15.0 15.0 15.0 15.0 15.0 15.0 15.0 15.0 15.0 15.0 15.0 15.0 15.0 15.0 15.0 15.0 15.0 15.0 15.0 15.0 15.0 15.0 15.0 15.0 15.0 15.0 15.0 15.0 15.0 15.0 15.0 15.0 15.0 15.0
15.0 15.0 15.0 14.7 15.0 15.0 15.0 15.0 15.0 15.0 15.0 15.0 12.9 15.0 15.0 15.0 15.0 15.0 15.0 15.0 15.0 15.0 15.0 15.0 15.0 15.0 15.0 15.0 15.0 15.0 15.0 15.0 15.0 15.0 15.0 15.0 15.0 15.0 15.0 15.0 15.0 15.0 15.0 15.0
15.0 15.0 15.0 15.0 15.0 15.0 15.0 15.0 15.0 15.0 15.0 10.4 15.0 15.0 15.0 15.0 15.0 15.0 15.0 15.0 15.0 15.0 15.0 15.0 15.0 15.0 15.0 15.0 15.0 15.0 15.0 15.0 15.0 15.0 15.0 15.0 15.0 15.0 15.0 15.0 15.0 15.0 15.0 15.0
15.0 15.0 15.0 15.0 15.0 15.0 15.0 15.0 15.0 15.0 15.0 15.0 15.0 15.0 15.0 15.0 15.0 15.0 15.0 15.0 15.0 15.0 15.0 15.0 15.0 15.0 15.0 15.0 15.0 15.0 15.0 15.0 15.0 15.0 14.9 12.5 11.7 15.0 14.6 2.3 3.2 5.1 15.0 15.0
15.0 15.0 15.0 15.0 15.0 15.0 15.0 15.0 15.0 15.0 15.0 15.0 15.0 15.0 15.0 15.0 15.0 15.0 15.0 15.0 15.0 15.0 15.0 15.0 15.0 15.0 15.0 15.0 15.0 15.0 15.0 15.0 15.0 7.6 2.8 3.7 2.2 1.4 3.5 9.0 14.6 15.0 15.0 15.0
15.0 15.0 15.0 15.0 15.0 15.0 15.0 15.0 15.0 15.0 15.0 15.0 15.0 15.0 15.0 15.0 15.0 15.0 15.0 15.0 15.0 15.0 15.0 15.0 15.0 15.0 15.0 14.7 8.5 6.5 5.3 2.8 1.4 0.5 0.3 1.1 1.3 1.6 4.7 13.1 15.0 15.0 15.0 15.0
15.0 14.4 15.0 15.0 15.0 15.0 15.0 15.0 15.0 15.0 15.0 15.0 15.0 15.0 15.0 15.0 15.0 15.0 10.1 2.5 15.0 14.5 1.2 0.7 2.8 1.8 0.7 0.9 0.9 0.4 0.1 0.1 0.1 0.2 0.2 0.7 3.2 14.3 15.0 15.0 15.0 15.0 15.0 15.0
15.0 15.0 15.0 15.0 15.0 15.0 0.4 10.7 15.0 15.0 11.9 15.0 15.0 15.0 15.0 13.1 3.3 2.4 0.3 0.1 0.1 0.1 0.1 0.1 0.1 0.1 0.1 0.1 0.1 0.1 0.1 0.1 0.2 1.2 3.6 3.6 12.8 15.0 15.0 15.0 15.0 15.0 15.0 15.0
15.0 15.0 15.0 15.0 13.1 3.5 7.8 6.7 5.0 6.3 10.3 15.0 13.4 0.8 0.3 0.1 0.1 0.1 0.1 0.1 0.1 0.2 0.1 0.1 0.1 0.1 0.1 0.1 0.2 0.2 0.3 0.4 0.7 1.7 4.4 12.4 15.0 15.0 15.0 15.0 15.0 15.0 15.0 15.0
0.1 0.2 0.8 1.1 2.0 3.2 0.6 0.3 1.0 0.4 0.1 0.3 0.2 0.1 0.1 0.1 0.1 0.1 0.1 0.1 0.1 0.1 0.1 0.1 0.1 0.1 0.1 0.1 0.3 0.9 2.7 5.1 13.7 15.0 15.0 15.0 15.0 14.5 15.0 15.0 5.8 3.6 4.2 4.0
0.1 0.1 0.1 0.1 0.1 0.1 0.1 0.1 0.1 0.1 0.1 0.1 0.1 0.1 0.1 0.1 0.1 0.1 0.2 0.2 0.1 0.1 0.1 0.1 0.1 0.2 10.8 2.7 0.5 0.7 1.8 1.2 0.6 1.0 3.9 3.7 1.5 2.3 1.9 3.8 3.4 3.5 1.7 2.8
0.1 0.1 0.1 0.1 0.2 0.1 0.1 0.1 0.1 0.1 0.1 0.1 0.1 0.1 0.2 0.1 0.1 0.2 0.1 0.2 0.1 0.1 0.1 0.1 0.2 4.3 1.6 0.1 0.4 0.5 2.3 4.7 15.0 11.8 9.9 3.8 4.1 3.6 4.0 4.3 4.1 2.5 6.5 15.0
0.1 0.1 0.1 0.1 0.2 0.1 0.1 0.2 0.1 0.4 0.2 0.2 0.2 0.2 0.3 0.1 0.1 0.3 0.1 0.1 0.1 0.1 0.2 0.1 1.3 13.7 0.7 0.5 5.2 11.6 15.0 15.0 15.0 7.7 1.4 1.4 0.8 0.4 0.6 1.1 0.3 0.9 2.2 0.7
0.1 0.2 0.1 0.1 4.9 15.0 0.5 0.2 0.7 0.6 0.4 0.4 0.2 0.1 0.5 0.3 0.1 0.1 0.1 0.1 0.1 0.1 0.7 14.2 15.0 15.0 14.2 14.4 15.0 15.0 15.0 5.0 3.1 9.9 15.0 15.0 5.9 1.8 3.5 2.0 0.6 0.5 0.4 0.9
0.2 0.2 0.1 0.2 0.3 0.1 0.1 0.3 1.4 1.5 3.1 0.9 0.4 0.5 1.7 2.0 1.4 0.2 0.8 0.5 7.4 15.0 15.0 15.0 15.0 15.0 13.5 15.0 15.0 14.1 4.1 0.7 0.3 0.5 0.8 1.5 4.3 5.4 5.7 3.3 0.5 0.3 0.3 0.4
0.2 0.1 0.2 0.3 0.3 0.3 0.4 10.4 0.3 0.2 8.3 0.5 0.3 0.3 0.4 2.8 8.8 9.9 15.0 15.0 15.0 1.3 0.4 1.2 1.4 0.9 13.8 15.0 9.2 10.0 4.1 9.6 1.6 2.2 4.7 3.7 3.9 4.1 4.0 2.8 1.3 0.9 1.7 3.9
0.6 2.2 7.5 6.2 15.0 14.6 7.0 1.9 6.6 0.5 0.4 2.0 0.4 0.3 0.4 1.2 1.1 2.2 15.0 2.3 4.5 15.0 15.0 3.7 1.0 1.3 5.6 12.3 12.0 10.7 4.5 12.5 5.4 0.5 0.8 8.4 6.0 1.5 1.3 2.4 9.3 6.4 6.8 4.8